Location: Ash Swamp
(41.5170°N, 74.6157°W)
Time: 17:18:18
(UTC+00:00)

BREEZE-M DEB (TANK) - Pass Details

Date: 14 July 2020
Orbit: 274 x 20503 km, 49.2° (Epoch: 05 August)

Event Time Altitude Azimuth Distance (km) Brightness Sun altitude
Rises 07:56:42 0° 295° (WNW) 2,379 5.9 -15.4°
Reaches altitude 10° 07:57:59 10° 291° (WNW) 1,784 5.2 -15.2°
Maximum altitude 08:01:24 60° 210° (SSW) 1,077 3.9 -14.8°
Drops below altitude 10° 08:14:42 10° 135° (SE) 6,555 8.3 -13.1°
Sets 08:25:19 0° 134° (SE) 10,452 9.3 -11.6°
